| time (UTC) | temp C | wind direction | speed KPH | gust KPH | rain 1hr cm | rain 24hr cm | rain mn cm | humidity % | barometer mb |
| 20260902184506 | 26 | 1 | 3.2 | 4.8 | 0.00 | 0.00 | 0.00 | 100 | 1013.6 |
| 20260902183003 | 26 | 336 | 1.6 | 1.6 | 0.00 | 0.00 | 0.00 | 100 | 1013.5 |
| 20260902181505 | 26 | 336 | 0.0 | 0.0 | 0.00 | 0.00 | 0.00 | 100 | 1013.8 |
| 20260902180020 | 26 | 359 | 0.0 | 1.6 | 0.00 | 0.00 | 0.00 | 100 | 1013.9 |
| 20260902174519 | 27 | 350 | 0.0 | 0.0 | 0.00 | 0.00 | 0.00 | 100 | 1014.0 |
| 20260902173005 | 27 | 333 | 0.0 | 0.0 | 0.00 | 0.00 | 0.00 | 100 | 1014.1 |
| 20260902171506 | 27 | 333 | 0.0 | 0.0 | 0.00 | 0.00 | 0.00 | 100 | 1014.3 |
| 20260902170003 | 26 | 333 | 0.0 | 0.0 | 0.00 | 0.00 | 0.00 | 100 | 1014.4 |
| 20260902164504 | 26 | 346 | 0.0 | 0.0 | 0.00 | 0.00 | 0.00 | 100 | 1014.3 |
| 20260902163007 | 26 | 322 | 0.0 | 0.0 | 0.00 | 0.00 | 0.00 | 100 | 1014.2 |
| 20260902160009 | 26 | 3 | 0.0 | 1.6 | 0.00 | 0.00 | 0.00 | 100 | 1014.6 |
| 20260902154508 | 27 | 135 | 1.6 | 4.8 | 0.00 | 0.00 | 0.00 | 100 | 1014.9 |
| 20260902153008 | 27 | 72 | 1.6 | 4.8 | 0.00 | 0.00 | 0.00 | 100 | 1014.8 |
| 20260902150007 | 27 | 8 | 0.0 | 0.0 | 0.00 | 0.00 | 0.00 | 100 | 1014.9 |
| 20260902144509 | 26 | 35 | 0.0 | 0.0 | 0.00 | 0.00 | 0.00 | 100 | 1015.1 |
| 20260902143009 | 27 | 340 | 0.0 | 0.0 | 0.00 | 0.00 | 0.00 | 100 | 1015.1 |
| 20260902141504 | 27 | 336 | 1.6 | 3.2 | 0.00 | 0.00 | 0.00 | 100 | 1015.1 |
| 20260902140007 | 27 | 165 | 0.0 | 1.6 | 0.00 | 0.00 | 0.00 | 100 | 1015.3 |
| 20260902134502 | 27 | 21 | 1.6 | 4.8 | 0.00 | 0.00 | 0.00 | 100 | 1015.4 |
| 20260902133008 | 27 | 350 | 1.6 | 4.8 | 0.00 | 0.00 | 0.00 | 100 | 1015.3 |
| 20260902131504 | 27 | 55 | 0.0 | 1.6 | 0.00 | 0.00 | 0.00 | 100 | 1015.3 |
| 20260902130003 | 27 | 56 | 1.6 | 1.6 | 0.00 | 0.00 | 0.00 | 100 | 1015.5 |
| 20260902123008 | 27 | 115 | 0.0 | 0.0 | 0.00 | 0.00 | 0.00 | 100 | 1015.6 |
| 20260902121502 | 27 | 343 | 0.0 | 0.0 | 0.00 | 0.00 | 0.00 | 100 | 1015.6 |
| 20260902120005 | 27 | 359 | 1.6 | 8.0 | 0.00 | 0.00 | 0.00 | 100 | 1015.6 |
| 20260902114502 | 27 | 359 | 0.0 | 0.0 | 0.00 | 0.00 | 0.00 | 100 | 1015.7 |
| 20260902113003 | 27 | 142 | 0.0 | 0.0 | 0.00 | 0.00 | 0.00 | 100 | 1015.7 |
| 20260902111503 | 27 | 340 | 0.0 | 0.0 | 0.00 | 0.00 | 0.00 | 100 | 1015.6 |
| 20260902104505 | 27 | 339 | 3.2 | 8.0 | 0.00 | 0.00 | 0.00 | 100 | 1015.7 |
| 20260902103007 | 27 | 10 | 0.0 | 0.0 | 0.00 | 0.00 | 0.00 | 100 | 1015.6 |
| 20260902101508 | 27 | 343 | 0.0 | 3.2 | 0.00 | 0.00 | 0.00 | 100 | 1015.4 |
| 20260902100008 | 27 | 359 | 1.6 | 9.7 | 0.00 | 0.00 | 0.00 | 100 | 1015.1 |
| 20260902094504 | 27 | 336 | 3.2 | 8.0 | 0.00 | 0.00 | 0.00 | 100 | 1015.0 |
| 20260902093005 | 27 | 3 | 3.2 | 6.4 | 0.00 | 0.00 | 0.00 | 100 | 1014.9 |
| 20260902091506 | 28 | 359 | 3.2 | 12.9 | 0.00 | 0.00 | 0.00 | 100 | 1014.8 |
| 20260902090004 | 28 | 359 | 1.6 | 6.4 | 0.00 | 0.00 | 0.00 | 100 | 1014.9 |
| 20260902084533 | 28 | 359 | 0.0 | 1.6 | 0.00 | 0.00 | 0.00 | 100 | 1014.9 |
| 20260902083004 | 28 | 18 | 3.2 | 11.3 | 0.00 | 0.00 | 0.00 | 100 | 1015.0 |
| 20260902081506 | 28 | 359 | 1.6 | 4.8 | 0.00 | 0.00 | 0.00 | 100 | 1015.1 |
| 20260902080005 | 29 | 359 | 3.2 | 11.3 | 0.00 | 0.03 | 0.00 | 100 | 1015.0 |
| 20260902074508 | 29 | 340 | 1.6 | 4.8 | 0.00 | 0.03 | 0.00 | 100 | 1015.1 |
| 20260902071506 | 30 | 104 | 3.2 | 6.4 | 0.00 | 0.03 | 0.00 | 100 | 1014.9 |
| 20260902070006 | 30 | 359 | 3.2 | 9.7 | 0.00 | 0.03 | 0.00 | 100 | 1014.9 |
| 20260902064508 | 31 | 359 | 0.0 | 1.6 | 0.00 | 0.03 | 0.00 | 100 | 1014.6 |
| 20260902063004 | 31 | 359 | 0.0 | 0.0 | 0.00 | 0.03 | 0.00 | 96 | 1014.5 |
| 20260902061507 | 32 | 356 | 0.0 | 4.8 | 0.00 | 0.03 | 0.00 | 85 | 1014.6 |
| 20260902060003 | 32 | 359 | 3.2 | 8.0 | 0.00 | 0.03 | 0.00 | 78 | 1014.6 |
| 20260902051506 | 32 | 359 | 1.6 | 8.0 | 0.00 | 0.03 | 0.00 | 80 | 1014.8 |
| 20260902043005 | 32 | 336 | 0.0 | 0.0 | 0.00 | 0.03 | 0.00 | 80 | 1015.5 |
| 20260902041506 | 32 | 359 | 1.6 | 4.8 | 0.00 | 0.03 | 0.00 | 77 | 1015.5 |
| 20260902040008 | 32 | 342 | 1.6 | 8.0 | 0.00 | 0.03 | 0.00 | 82 | 1015.6 |
| 20260902034505 | 32 | 340 | 0.0 | 0.0 | 0.00 | 0.03 | 0.00 | 85 | 1015.8 |
| 20260902024505 | 31 | 359 | 0.0 | 0.0 | 0.00 | 0.05 | 0.00 | 90 | 1016.2 |
| 20260902023008 | 31 | 359 | 0.0 | 0.0 | 0.00 | 0.05 | 0.00 | 90 | 1016.2 |
| 20260902021506 | 30 | 31 | 3.2 | 6.4 | 0.00 | 0.15 | 0.00 | 89 | 1016.4 |
| 20260902014505 | 31 | 335 | 3.2 | 4.8 | 0.00 | 0.23 | 0.00 | 82 | 1016.5 |
| 20260902013002 | 30 | 359 | 0.0 | 0.0 | 0.00 | 0.23 | 0.00 | 85 | 1016.6 |
| 20260902010002 | 30 | 359 | 0.0 | 0.0 | 0.00 | 0.23 | 0.00 | 93 | 1016.7 |
| 20260902003005 | 30 | 359 | 0.0 | 0.0 | 0.00 | 0.23 | 0.00 | 97 | 1016.7 |
| 20260902001502 | 30 | 359 | 0.0 | 4.8 | 0.00 | 0.23 | 0.00 | 100 | 1016.6 |
| 20260902000004 | 29 | 347 | 0.0 | 0.0 | 0.00 | 0.23 | 0.00 | 100 | 1016.4 |
| 20260901234505 | 28 | 339 | 0.0 | 1.6 | 0.00 | 0.23 | 0.00 | 100 | 1016.3 |
| 20260901233002 | 28 | 330 | 0.0 | 0.0 | 0.00 | 0.23 | 0.00 | 100 | 1016.5 |
| 20260901230002 | 27 | 11 | 0.0 | 0.0 | 0.00 | 0.25 | 0.00 | 100 | 1016.5 |
| 20260901224505 | 27 | 11 | 0.0 | 0.0 | 0.00 | 0.25 | 0.00 | 100 | 1016.5 |
| 20260901223002 | 26 | 11 | 0.0 | 0.0 | 0.00 | 0.25 | 0.00 | 100 | 1016.6 |
| 20260901221506 | 26 | 11 | 0.0 | 0.0 | 0.00 | 0.25 | 0.00 | 100 | 1016.6 |
| 20260901220002 | 26 | 11 | 0.0 | 0.0 | 0.00 | 0.25 | 0.00 | 100 | 1016.7 |
| 20260901214506 | 26 | 11 | 0.0 | 0.0 | 0.00 | 0.25 | 0.00 | 100 | 1016.7 |
| 20260901213002 | 26 | 131 | 0.0 | 0.0 | 0.00 | 0.25 | 0.00 | 100 | 1016.7 |
| 20260901211506 | 26 | 131 | 0.0 | 0.0 | 0.00 | 0.25 | 0.00 | 100 | 1016.7 |
| 20260901210003 | 26 | 131 | 0.0 | 0.0 | 0.00 | 0.25 | 0.00 | 100 | 1016.9 |
| 20260901204506 | 26 | 131 | 0.0 | 0.0 | 0.00 | 0.25 | 0.00 | 100 | 1016.9 |
| 20260901201505 | 26 | 131 | 0.0 | 0.0 | 0.00 | 0.25 | 0.00 | 100 | 1017.0 |
| 20260901200008 | 26 | 131 | 0.0 | 0.0 | 0.00 | 0.25 | 0.00 | 100 | 1016.9 |
| 20260901194503 | 26 | 131 | 0.0 | 0.0 | 0.00 | 0.25 | 0.00 | 100 | 1016.9 |
| 20260901191502 | 26 | 131 | 0.0 | 0.0 | 0.00 | 0.25 | 0.00 | 100 | 1017.0 |
| 20260901190005 | 26 | 131 | 0.0 | 0.0 | 0.00 | 0.25 | 0.00 | 100 | 1016.9 |